Showing default

FLOCK 4Q 9, 58322

Orbit data source: Space-Track

FLOCK 4Q 9, 58322 is a payload satellite owned by Planet (US) in SSO that was launched on Sat, 11 Nov 2023 UTC via an FALCON 9 launch vehicle from the Air Force Western Test Range (AFWTR). Payload-class satellites include a variety of spacecraft equipped with specific instruments for various scientific and technological missions. These include communications satellites like Starlink; space stations such as the ISS; scientific satellites like the Hubble; Earth observation satellites from companies like Planet Labs, Umbra, and HawkEye 360; GPS; miniature CubeSats for education and research; and military/defense satellites.

Loading next visibility...
Identifier
58322, 2023-174BU
Orbit
SSO
Country
Flag of USUS
Related business
Manufacturer
Planet
Mission
Operational Commercial Imaging
Bus & Motor
CUBESAT 3U, Unknown motor
Mass
5.7 kg wet, 5.7 kg dry
Launch date (UTC)
2023-11-11 (3 years ago)
Launch vehicle
FALCON 9
Launch site
Air Force Western Test Range (AFWTR)
Object type
Payload
Rocket body
Debris
Shape & HBR
Box + 2 Pan, 1.0 m
Radar Cross Section
0.072 m², Medium (>0.1 m² and < 1m²)

Expand to show TLE details & history
Last TLE update: 10 hours ago

TLE from 10 hours ago
0 FLOCK 4Q 9
1 58322U 23174BU  26176.48459122  .00038548  00000-0  67859-3 0  9990
2 58322  97.3864 265.2118 0007603 113.6213 246.5837 15.50327345146873
Epoch: 2026-06-25T11:37Z
TLE epoch observation values (Epoch: 2026-06-25T11:37:48.681Z)
Latitude
-0.00007°
Longitude
177.13219°
Altitude
420.958 km
Speed
7.657 km/s
True Right ascension
17h 40m 50s
True Declination
0° 00' 00"
Sunlit
Object was in full shadow at epoch
Visualization orbit readout
Latitude
Unknown
Longitude
Unknown
Altitude
Unknown
Speed
Unknown
Apparent Right ascension
Unknown
Apparent Declination
Unknown
Sunlit
N/A
Visualization observer readout
Local Sidereal Time
08:38:36
Azimuth
Unknown
Elevation
Unknown
Doppler factor
Unknown
Orbital elements
Apogee altitude
417.857 km
Perigee altitude
407.531 km
Semi-major axis
6,790.831 km
Eccentricity
0.00076
Inclination
97.3864°
RAAN
265.2118°
Arg. of periapsis
113.6213°
True anomaly
246.50378°
Mean anomaly
246.5837°
Eccentric anomaly
246.54374°
Mean motion
3.87846 °/min
Orbital period
92.82 mins
BSTAR
0.00067859
Loading maneuver chart data...
Computing Atmospheric mass density...
Loading historical data...
Loading historical data...
Loading historical data...
Loading historical data...
Loading historical data...
Loading historical data...
Loading historical data...

Documentation

Showing up to 5 results
|